Location: Caltech
(34.1382°N, 118.1253°W)
Time: 18:52:49
(UTC-07:00)

Oscar 10/S400 - Visible Passes

Search period start: 22 June 2017 00:00
Search period end: 02 July 2017 00:00
Orbit: 3998 x 35449 km, 27.0° (Epoch: 21 June)

Date Brightness Start Highest point End Pass type
(mag) Time Alt. Az. Time Alt. Az. Time Alt. Az.
22 Jun ? 10:34:51 10° SW 17:19:26 63° SE 21:05:15 10° SE visible
29 Jun ? 19:14:07 10° WNW 20:28:36 15° WNW 22:17:46 10° WNW visible
30 Jun ? 18:02:54 10° WNW 19:46:56 24° WNW 22:56:20 10° W visible
01 Jul ? 17:03:48 10° WNW 19:04:49 32° W 23:24:37 10° W visible
